RH
87 93 94 93 80 69 75 66 50 61 60 65 72 48 49 42 46 52 54 50 49 42 43 48 47 46 42 59 61 51 52 52 61 43 48 47 48 46 43 57 37 55 55 63
97 97 92 99 86 77 97 94 79 66 59 54 55 41 46 45 48 50 54 52 50 44 45 50 49 50 48 62 54 45 46 48 62 39 47 49 48 44 48 50 55 48 54 57
99 97 99 98 99 82 90 89 71 63 72 69 40 38 42 40 53 52 54 51 47 50 50 51 49 47 54 60 56 62 50 55 44 40 30 42 41 48 46 43 60 37 40 48
86 90 97 100 100 90 86 92 72 59 57 54 48 44 38 44 40 60 57 51 56 54 51 46 54 47 46 59 54 59 50 46 57 53 46 46 43 37 51 54 38 36 28 46
90 92 94 96 100 98 88 97 77 69 69 60 56 56 49 50 42 55 59 58 44 57 49 42 39 49 50 45 53 55 62 50 59 49 53 54 55 49 47 48 46 45 44 41
85 88 89 91 96 100 94 85 80 72 67 61 62 59 47 45 44 44 41 56 50 58 53 44 48 52 62 50 54 60 62 63 65 44 56 56 52 61 56 52 51 48 48 40
85 86 88 88 92 99 89 80 74 80 79 63 57 45 51 46 51 39 50 50 47 47 61 60 57 62 65 62 69 68 70 64 68 71 49 47 36 49 49 45 47 52 48 56
88 93 86 92 90 90 100 97 86 87 95 67 56 53 50 46 49 52 50 54 49 60 44 49 43 47 52 69 74 69 70 68 66 64 59 44 48 54 54 51 41 51 54 62
84 79 86 85 87 91 98 100 97 93 92 78 54 48 49 47 63 60 58 64 63 54 57 48 42 43 42 59 74 76 77 71 62 78 59 50 36 42 42 40 46 58 58 64
91 93 95 92 78 82 96 97 99 95 97 76 54 61 53 55 59 66 74 75 69 58 66 57 58 50 46 52 65 88 85 84 83 79 81 58 43 42 42 41 40 60 61 66
94 94 93 96 94 90 95 91 92 99 94 82 67 58 58 60 61 64 70 65 70 76 66 62 60 59 58 55 58 76 71 84 87 81 78 65 47 45 50 47 59 59 60 66
91 92 99 96 95 95 91 98 93 92 97 90 75 57 46 43 41 56 72 54 70 63 66 72 68 68 78 60 56 64 54 51 60 59 58 54 50 52 50 53 56 56 59 63
92 93 92 92 93 96 94 98 92 95 92 90 97 94 70 58 49 40 63 72 60 66 58 74 74 67 74 73 70 60 58 56 56 56 54 56 52 56 52 51 52 59 58 65
94 95 92 92 95 94 96 97 92 94 91 98 88 79 75 63 56 56 50 53 63 70 73 78 83 79 68 72 62 60 57 58 60 61 59 60 58 56 59 61 62 64 67 68
92 90 96 97 96 91 100 97 94 92 89 92 96 94 80 68 62 67 64 64 76 85 89 89 85 86 85 93 83 82 65 57 60 64 58 57 61 60 59 60 60 67 68 70
94 98 96 95 92 92 94 95 94 92 89 96 95 90 99 99 90 82 83 78 88 90 92 95 94 84 86 98 97 76 70 61 62 66 68 70 71 66 65 66 66 68 70 67
99 98 100 100 100 100 95 89 71 83 94 94 92 100 99 97 93 98 98 95 98 94 99 99 98 95 89 98 98 74 72 70 72 70 73 86 67 70 70 71 73 73 76 75
100 100 100 99 100 100 97 97 74 65 88 82 92 99 99 94 99 99 96 99 99 98 98 99 98 99 99 99 86 78 72 71 69 70 66 68 70 76 80 75 72 75 71 60
99 96 94 99 99 96 93 94 90 80 70 84 94 98 98 98 99 98 100 98 100 100 99 98 97 99 98 95 89 76 72 72 66 66 74 73 74 74 74 74 72 68 58 55
97 85 100 99 98 82 91 97 95 98 98 99 99 98 98 96 98 99 98 99 97 98 98 98 99 98 96 80 74 70 65 59 58 78 86 81 78 78 76 69 61 61 62 57
94 98 98 100 100 96 100 99 98 99 97 99 92 95 96 99 88 96 94 98 98 97 96 93 97 98 95 97 95 87 83 77 67 64 68 62 63 63 67 62 55 48 46 49
99 99 100 90 96 96 93 97 98 97 96 97 97 92 96 99 99 96 98 96 98 96 96 95 97 90 92 97 98 97 87 70 71 66 70 65 62 54 51 49 46 45 46 46
100 99 91 94 94 87 92 95 95 96 97 98 95 98 97 99 97 97 97 96 96 91 95 91 88 80 94 97 94 91 74 66 61 58 51 47 46 42 39 43 44 46 50 52
98 96 94 97 94 94 94 96 96 94 97 85 82 96 96 98 96 96 94 96 91 95 96 94 94 78 95 91 87 80 54 48 49 48 45 46 46 45 43 44 47 54 58 58
96 94 96 96 96 97 96 97 97 97 84 80 88 92 86 97 95 95 95 96 95 86 87 86 85 82 91 89 77 53 49 48 52 49 50 53 55 56 57 57 59 61 63 67
95 94 95 93 94 94 95 96 96 97 96 89 85 96 95 96 96 95 95 90 93 88 94 77 79 89 84 75 57 54 50 49 51 53 57 60 62 63 65 64 62 68 72 75
93 96 96 96 96 96 96 96 95 96 90 96 95 94 96 96 96 95 93 89 93 92 81 68 65 67 61 57 56 58 60 62 61 62 64 69 70 65 66 74 71 72 74 78
Wind_Speed
21 22 21 23 26 27 17 6 3 3 0 3 1 2 5 4 3 2 3 3 4 3 1 2 3 3 4 4 1 3 2 3 2 1 2 1 2 4 4 4 2 1 2 4
19 19 20 19 19 19 9 3 3 2 0 2 2 3 4 5 5 4 4 5 6 3 2 2 3 2 0 3 3 1 3 0 2 4 3 1 2 1 2 4 3 4 4 4
20 16 15 18 15 14 10 1 3 3 2 1 2 3 4 3 4 3 4 3 2 3 3 4 3 2 1 2 0 2 1 1 4 5 3 1 3 3 2 2 2 3 4 4
22 22 17 14 16 9 6 1 4 3 3 3 3 1 2 3 4 4 6 2 6 6 4 3 5 3 2 1 1 2 2 2 2 4 4 2 3 4 5 6 4 4 2 6
22 21 20 18 15 10 5 2 2 1 3 2 4 4 5 6 3 7 5 6 5 7 6 7 7 5 4 4 0 2 1 1 0 3 1 3 4 7 5 3 2 4 3 4
23 23 22 20 18 19 8 7 3 2 4 2 5 6 7 6 4 6 2 7 5 6 10 5 1 3 4 3 5 4 2 4 2 3 2 3 6 8 9 4 4 6 5 6
25 25 24 22 21 18 15 9 4 3 5 6 7 5 8 8 7 4 1 5 4 2 6 7 5 6 4 3 3 1 4 3 2 3 2 1 3 1 4 5 5 7 2 4
27 26 26 26 26 27 25 17 9 4 5 6 7 8 5 2 3 6 5 5 2 6 3 3 1 2 0 1 3 0 0 3 1 1 2 6 3 4 6 7 5 8 6 7
30 29 27 28 27 27 27 25 26 6 5 13 8 5 10 10 5 1 4 2 3 3 2 2 5 5 4 3 2 2 3 4 3 2 2 5 2 2 3 2 4 7 8 10
34 33 32 31 31 29 25 27 24 14 8 8 6 5 10 6 4 3 4 6 3 2 3 3 4 4 3 4 6 5 3 2 4 3 3 7 4 3 2 4 4 5 7 7
34 37 36 33 31 31 29 25 22 24 7 11 11 20 14 1 4 5 5 4 0 2 4 4 4 4 6 3 4 6 7 7 4 2 2 7 2 2 5 2 2 4 4 6
40 40 36 35 35 32 32 34 30 27 14 7 22 37 35 28 16 5 6 2 5 6 3 3 3 3 2 4 4 1 3 5 4 7 5 3 4 2 1 2 4 3 5 4
43 40 40 39 37 35 36 36 30 19 8 18 10 11 27 40 34 18 5 2 4 4 2 4 3 4 4 5 5 3 3 3 3 2 2 3 6 2 2 2 3 4 3 4
44 44 44 43 45 45 43 37 33 26 5 8 9 18 25 29 36 30 17 7 5 5 3 2 3 3 4 4 3 4 4 7 5 2 1 3 1 1 4 3 3 4 4 3
50 55 51 49 49 47 46 45 42 39 17 4 5 4 19 35 34 30 22 15 7 3 3 3 4 3 3 1 2 2 5 6 5 5 7 4 3 4 2 3 2 4 5 4
62 56 60 59 57 54 43 16 47 47 45 8 12 4 5 9 22 24 13 7 3 3 4 3 3 2 3 4 4 3 3 3 2 4 5 12 7 3 3 2 3 3 5 4
61 64 72 78 76 63 30 14 27 45 46 8 7 5 4 14 13 2 2 2 3 3 3 2 4 3 4 3 4 5 7 7 7 9 13 6 3 3 3 6 7 8 9 7
62 73 72 77 62 58 34 63 31 46 32 6 7 4 4 10 4 4 3 3 2 1 3 3 3 3 2 4 4 6 9 10 9 8 7 6 7 6 5 8 8 7 6 5
71 62 62 31 21 14 35 58 59 41 13 8 8 7 6 6 3 4 2 2 2 1 3 4 5 4 6 5 10 11 11 7 10 7 7 7 7 7 6 6 6 7 5 5
49 21 5 5 6 24 38 30 14 7 6 4 4 5 4 4 3 3 4 2 4 4 2 4 3 3 2 3 7 10 8 10 11 11 6 7 6 6 5 6 6 7 5 3
13 5 4 15 10 9 3 5 7 3 0 1 7 7 10 1 7 4 1 3 3 4 3 5 4 2 4 5 9 8 7 6 5 7 7 7 9 9 8 6 8 7 5 3
15 19 14 9 4 4 5 3 3 3 4 3 10 11 6 4 3 4 2 3 2 4 5 4 4 3 9 9 10 8 7 9 9 14 11 13 13 13 11 9 8 5 3 5
5 3 4 4 5 7 5 2 1 1 3 6 10 9 4 3 3 4 3 3 2 7 2 3 3 7 9 10 9 8 8 12 13 11 14 14 12 9 8 8 5 2 5 7
3 4 6 4 5 2 1 5 3 2 5 13 12 6 4 3 3 3 5 3 3 3 4 6 3 11 12 11 9 10 9 8 8 9 11 9 7 5 4 2 0 4 7 12
4 4 4 1 3 5 5 6 2 1 5 4 6 6 4 3 5 3 5 4 4 4 5 4 7 12 13 12 10 9 9 7 6 9 8 7 6 4 2 1 2 5 8 11
3 5 5 6 5 7 6 6 4 6 3 3 4 5 5 4 3 3 3 7 5 4 3 9 11 13 11 10 8 6 10 11 10 9 7 6 5 3 1 2 5 6 8 12
5 3 3 5 3 5 6 6 6 6 3 4 4 6 4 3 3 3 1 3 3 8 9 8 12 13 11 8 8 10 12 11 10 8 7 7 5 3 4 6 9 11 13 13
Wind_Direction
314 319 332 339 344 346 356 358 339 350 165 36 53 201 195 177 211 171 217 176 215 220 266 266 262 259 232 185 242 188 192 155 259 125 293 337 307 173 152 120 222 229 145 276
322 313 317 329 339 346 344 351 269 350 332 231 243 260 266 214 163 213 190 231 194 166 228 291 209 243 276 166 181 219 185 193 15 348 351 87 256 223 110 107 98 201 154 254
344 323 310 313 323 331 339 66 332 318 58 325 223 216 227 252 204 190 183 233 160 148 230 200 293 276 195 166 240 117 87 146 177 191 213 179 241 187 164 123 110 181 218 166
316 319 317 295 298 306 322 212 226 187 275 265 234 200 192 211 238 224 181 213 218 186 202 199 220 225 286 169 133 89 109 254 141 271 253 248 255 217 181 177 199 174 292 175
317 323 309 306 291 260 216 253 249 347 264 227 166 192 233 215 237 165 235 205 178 196 207 195 201 169 199 213 109 136 48 259 197 283 169 204 273 252 227 225 234 270 143 223
312 313 316 305 304 245 216 204 231 132 250 217 145 209 217 225 176 221 200 210 145 191 230 200 123 133 96 154 167 179 172 148 117 269 277 280 287 222 186 189 197 152 173 217
312 309 304 304 298 287 227 207 154 143 261 208 207 211 191 211 212 275 274 153 167 193 104 101 91 75 84 118 48 145 149 138 149 252 339 307 254 128 173 199 208 200 149 162
310 305 297 296 292 293 299 242 197 198 239 235 246 237 217 212 196 208 207 218 205 147 100 73 38 332 257 107 38 109 62 138 145 187 220 285 132 195 168 185 242 186 163 143
304 298 296 293 288 285 292 288 221 207 251 234 241 235 210 228 191 172 196 45 129 79 102 132 206 217 210 216 152 69 68 70 121 129 177 230 243 207 201 210 288 174 150 159
298 296 290 287 280 281 279 283 273 227 242 212 163 198 225 172 167 148 136 164 161 34 146 174 189 238 164 195 182 169 125 91 189 192 255 288 244 169 172 128 252 164 156 156
296 297 292 285 279 271 270 273 271 268 255 241 215 219 231 176 180 159 162 102 198 104 185 178 205 194 215 161 156 175 167 153 195 120 187 274 140 83 171 217 39 134 132 153
296 294 287 281 278 272 268 263 268 270 278 277 223 218 220 227 222 150 189 208 162 165 148 210 130 174 148 174 216 7 203 190 178 191 211 176 187 293 342 155 133 154 145 159
295 289 286 280 273 268 260 259 261 269 266 279 229 206 230 233 233 218 153 240 182 195 180 154 172 198 143 166 223 161 238 177 157 81 201 207 164 146 120 67 86 117 121 141
293 288 282 276 270 266 253 249 251 241 260 279 245 214 202 212 212 213 209 154 138 119 127 146 161 177 187 191 154 166 175 146 172 208 310 84 105 282 134 92 81 84 76 121
292 291 280 274 265 261 245 247 244 232 223 254 267 256 207 203 199 196 193 164 141 157 143 147 198 127 130 68 67 226 188 172 176 216 169 136 109 131 117 138 104 152 134 109
297 286 284 276 266 255 247 245 238 227 220 233 253 260 170 174 190 178 170 162 135 141 149 167 163 168 136 158 197 247 173 111 170 156 113 87 93 80 33 55 118 112 128 123
298 289 289 282 266 247 223 211 210 207 202 217 232 254 207 153 133 120 108 107 145 128 135 162 135 177 153 143 189 193 161 120 107 111 103 88 123 150 105 103 92 102 91 79
303 299 297 289 269 235 225 218 211 188 182 177 219 236 164 170 148 124 160 131 128 93 127 123 142 120 122 232 185 138 125 115 96 95 76 120 128 118 98 102 103 83 72 64
313 308 301 306 209 196 200 196 194 178 176 181 172 201 155 158 106 111 112 146 133 106 141 168 147 153 210 187 160 141 149 130 131 117 121 124 121 117 107 104 87 102 97 91
319 312 341 302 311 138 143 156 182 217 166 170 179 172 135 128 136 124 116 109 140 156 162 126 188 168 85 24 120 125 124 123 132 127 129 126 120 129 118 114 107 108 106 90
343 329 320 324 40 58 98 123 153 121 244 254 162 160 127 308 138 114 94 140 141 149 179 154 172 188 156 146 104 98 105 127 135 113 109 125 136 138 131 121 115 111 97 64
286 290 299 331 15 6 64 64 67 122 168 246 161 137 116 100 94 106 136 109 159 161 143 120 172 154 137 139 125 122 127 128 118 124 121 120 119 127 127 131 130 114 65 6
318 308 7 13 339 20 28 102 87 178 192 213 143 115 108 106 85 88 107 108 114 124 95 171 165 143 144 132 131 130 134 128 120 117 120 128 129 132 132 136 129 61 337 335
356 17 27 30 344 343 41 308 310 262 203 133 113 89 96 98 85 118 94 91 121 104 143 207 171 152 146 145 145 140 147 135 124 122 128 127 122 117 125 127 40 322 318 324
31 21 39 45 308 260 274 258 214 297 93 118 99 62 77 78 104 73 111 136 156 185 194 155 149 153 146 147 151 143 133 129 128 136 132 127 125 122 106 49 330 319 319 321
44 36 355 339 344 359 7 357 16 352 9 61 56 88 77 69 95 103 120 135 183 193 149 133 138 140 142 145 138 134 141 145 140 135 132 124 119 123 87 340 337 340 334 325
29 355 334 339 316 345 351 341 342 327 26 56 77 65 57 112 82 89 246 167 146 125 118 131 137 139 136 127 127 137 140 131 127 125 119 115 112 88 18 1 348 338 331 324